Weather History for Friday Harbor, WA

Change the Weather History Date:

Wednesday, July 3, 2013

  Actual Average Record
Temperature  
Mean Temperature 59 °F -  
Max Temperature 73 °F 66 °F 75 °F (2001)
Min Temperature 46 °F 46 °F 39 °F (2000)
Degree Days  
Heating Degree Days 6    
Growing Degree Days 9 (Base 50)    
Moisture  
Dew Point 50 °F    
Average Humidity 75    
Maximum Humidity 97    
Minimum Humidity 51    
Precipitation  
Precipitation 0.00 in - - ()
Sea Level Pressure  
Sea Level Pressure 30.12 in    
Wind  
Wind Speed 2 mph (SE)    
Max Wind Speed 9 mph    
Max Gust Speed -    
Visibility 10 miles    
Events      
Averages and records for this station are not official NWS values.
T = Trace of Precipitation, MM = Missing Value Source: NWS Daily Summary

Daily Weather History Graph

Daily Weather History Graph

Search for Another Location

Airport:

Trip Planner

Search our weather history database for the weather conditions in past years. The results will help you decide how hot, cold, wet, or windy it might be!

Date:

Astronomy

Jul. 03, 2013 Rise Set
Actual Time 5:15 AM PDT 9:16 PM PDT
Civil Twilight 4:34 AM PDT 9:58 PM PDT
Nautical Twilight 3:36 AM PDT 10:55 PM PDT
Astronomical Twilight 1:55 AM PDT 12:34 AM PDT
Moon 2:07 AM PDT (7/3) 5:24 PM PDT (7/3)
Length of Visible Light 17h 23m
Length of Day
16h 00m
Waning Crescent, 17% of the Moon is Illuminated
Jul 3
Waning Crescent
Jul 8
New
Jul 15
First Quarter
Jul 22
Full
Jul 29
Last Quarter

Hourly Weather History & Observations

Time (PDT) Temp. Dew Point Humidity Pressure Visibility Wind Dir Wind Speed Gust Speed Precip Events Conditions
12:53 AM 51.1 °F 48.0 °F 89% 30.10 in 10.0 mi Calm Calm - N/A   Clear
1:53 AM 50.0 °F 48.0 °F 93% 30.12 in 10.0 mi Calm Calm - N/A   Clear
2:53 AM 48.9 °F 46.9 °F 93% 30.12 in 10.0 mi Calm Calm - N/A   Clear
3:53 AM 46.9 °F 46.0 °F 97% 30.13 in 10.0 mi Calm Calm - N/A   Clear
4:53 AM 46.0 °F 45.0 °F 96% 30.14 in 10.0 mi Calm Calm - N/A   Clear
5:53 AM 48.9 °F 48.0 °F 97% 30.15 in 10.0 mi Calm Calm - N/A   Clear
6:53 AM 54.0 °F 51.1 °F 90% 30.16 in 10.0 mi Calm Calm - N/A   Clear
7:53 AM 57.0 °F 51.1 °F 81% 30.16 in 10.0 mi ESE 4.6 mph - N/A   Clear
8:53 AM 59.0 °F 52.0 °F 78% 30.17 in 10.0 mi ESE 4.6 mph - N/A   Clear
9:53 AM 62.1 °F 52.0 °F 70% 30.17 in 10.0 mi East 3.5 mph - N/A   Clear
10:53 AM 64.9 °F 53.1 °F 65% 30.17 in 10.0 mi East 3.5 mph - N/A   Clear
11:53 AM 66.9 °F 53.1 °F 61% 30.16 in 10.0 mi ESE 5.8 mph - N/A   Clear
12:53 PM 69.1 °F 51.1 °F 53% 30.16 in 10.0 mi ESE 5.8 mph - N/A   Clear
1:53 PM 72.0 °F 53.1 °F 51% 30.14 in 10.0 mi SE 6.9 mph - N/A   Clear
2:53 PM 72.0 °F 53.1 °F 51% 30.13 in 10.0 mi SSE 5.8 mph - N/A   Clear
3:53 PM 71.1 °F 52.0 °F 51% 30.12 in 10.0 mi ESE 8.1 mph - N/A   Clear
4:53 PM 66.9 °F 52.0 °F 59% 30.10 in 10.0 mi SW 9.2 mph - N/A   Clear
5:53 PM 62.1 °F 50.0 °F 65% 30.08 in 10.0 mi SSW 6.9 mph - N/A   Clear
6:53 PM 62.1 °F 48.9 °F 62% 30.06 in 10.0 mi Variable 3.5 mph - N/A   Clear
7:53 PM 61.0 °F 46.0 °F 58% 30.05 in 10.0 mi Calm Calm - N/A   Clear
8:53 PM 57.0 °F 48.9 °F 74% 30.05 in 10.0 mi Calm Calm - N/A   Clear
9:53 PM 55.0 °F 50.0 °F 83% 30.06 in 10.0 mi Variable 4.6 mph - N/A   Clear
10:53 PM 55.0 °F 51.1 °F 86% 30.06 in 10.0 mi WSW 8.1 mph - N/A   Clear
11:53 PM 55.0 °F 51.1 °F 86% 30.06 in 10.0 mi Variable 3.5 mph - N/A   Clear